Ravenna, OH

2:08 PM EDT on April 29, 2017 (GMT -0400)
Ravenna

Weather History for KPOV - June, 2013

Change the Weather History Date:

Tuesday, June 25, 2013

  Actual Average (KCAK) Record (KCAK)
Temperature  
Mean Temperature 76 °F -  
Max Temperature 87 °F 81 °F 100 °F (1988)
Min Temperature 64 °F 59 °F 44 °F (1979)
Cooling Degree Days 10    
Growing Degree Days 26 (Base 50)    
Moisture  
Dew Point 66 °F    
Average Humidity 78    
Maximum Humidity 100    
Minimum Humidity 47    
Precipitation  
Precipitation 0.96 in - - ()
Sea Level Pressure  
Sea Level Pressure 29.98 in    
Wind  
Wind Speed 6 mph (WSW)    
Max Wind Speed 18 mph    
Max Gust Speed 31 mph    
Visibility 9 miles    
Events Rain    
Averages and records for this station are not official NWS values.
T = Trace of Precipitation, MM = Missing Value Source: NWS Daily Summary

Daily Weather History Graph

Daily Weather History Graph

Search for Another Location

Airport or City:

Trip Planner

Search our weather history database for the weather conditions in past years. The results will help you decide how hot, cold, wet, or windy it might be!

Date:

Astronomy

Jun. 25, 2013 Rise Set
Actual Time 5:53 AM EDT 9:01 PM EDT
Civil Twilight 5:19 AM EDT 9:35 PM EDT
Nautical Twilight 4:36 AM EDT 10:18 PM EDT
Astronomical Twilight 3:44 AM EDT 11:10 PM EDT
Moon 10:44 PM EDT (6/25) 8:33 AM EDT (6/25)
Length of Visible Light 16h 16m
Length of Day
15h 08m
Waning Gibbous, 93% of the Moon is Illuminated
Jun 25
Waning Gibbous
Jun 30
Last Quarter
Jul 8
New
Jul 15
First Quarter
Jul 22
Full

Hourly Weather History & Observations

Time (EDT) Temp. Heat Index Dew Point Humidity Pressure Visibility Wind Dir Wind Speed Gust Speed Precip Events Conditions
12:14 AM 74.7 °F - 64.4 °F 70% 30.06 in 10.0 mi SW 3.5 mph - N/A   Scattered Clouds
12:33 AM 74.5 °F - 64.6 °F 71% 30.05 in 10.0 mi SW 4.6 mph - N/A   Scattered Clouds
12:53 AM 74.3 °F - 65.1 °F 73% 30.05 in 10.0 mi SW 3.5 mph - N/A   Clear
1:14 AM 74.3 °F - 65.1 °F 73% 30.04 in 10.0 mi WSW 5.8 mph - N/A   Clear
1:33 AM 73.9 °F - 65.1 °F 74% 30.04 in 10.0 mi WSW 5.8 mph - N/A   Clear
1:53 AM 73.9 °F - 65.1 °F 74% 30.03 in 10.0 mi SW 4.6 mph - N/A   Clear
2:14 AM 73.6 °F - 64.8 °F 74% 30.02 in 10.0 mi SW 5.8 mph - N/A   Clear
2:33 AM 72.7 °F - 64.6 °F 76% 29.99 in 10.0 mi Calm Calm - N/A   Clear
2:53 AM 72.5 °F - 64.8 °F 77% 29.98 in 10.0 mi SSE 3.5 mph - N/A   Clear
3:14 AM 72.5 °F - 65.3 °F 78% 29.98 in 10.0 mi South 4.6 mph - N/A   Clear
3:33 AM 72.7 °F - 65.8 °F 79% 29.99 in 10.0 mi SW 3.5 mph - N/A   Clear
3:54 AM 72.5 °F - 66.2 °F 81% 29.99 in 10.0 mi SW 6.9 mph - N/A   Clear
4:14 AM 72.5 °F - 66.0 °F 80% 29.99 in 10.0 mi WSW 4.6 mph - N/A   Clear
4:33 AM 72.1 °F - 66.0 °F 81% 29.99 in 10.0 mi Calm Calm - N/A   Clear
4:53 AM 72.0 °F - 65.7 °F 80% 29.99 in 10.0 mi WSW 3.5 mph - N/A   Clear
5:14 AM 72.0 °F - 65.3 °F 79% 29.99 in 10.0 mi WSW 4.6 mph - N/A   Scattered Clouds
5:33 AM 72.5 °F - 64.6 °F 76% 30.00 in 10.0 mi WSW 5.8 mph - N/A   Clear
5:53 AM 72.5 °F - 65.3 °F 78% 30.00 in 10.0 mi WSW 3.5 mph - N/A   Clear
6:14 AM 71.6 °F - 65.5 °F 81% 30.01 in 10.0 mi WSW 5.8 mph - N/A   Clear
6:33 AM 71.6 °F - 66.0 °F 82% 30.01 in 10.0 mi WSW 3.5 mph - N/A   Scattered Clouds
6:54 AM 72.1 °F - 66.0 °F 81% 30.01 in 10.0 mi SW 3.5 mph - N/A   Scattered Clouds
7:14 AM 72.7 °F - 65.5 °F 78% 30.02 in 10.0 mi WSW 8.1 mph - N/A   Mostly Cloudy
7:33 AM 72.9 °F - 65.8 °F 79% 30.03 in 10.0 mi WSW 3.5 mph - N/A   Overcast
7:53 AM 73.0 °F - 65.3 °F 77% 30.03 in 10.0 mi WSW 8.1 mph - N/A   Overcast
8:14 AM 73.9 °F - 64.9 °F 73% 30.03 in 10.0 mi West 10.4 mph 16.1 mph N/A   Mostly Cloudy
8:33 AM 75.2 °F - 65.3 °F 71% 30.03 in 10.0 mi WSW 9.2 mph 16.1 mph N/A   Scattered Clouds
8:53 AM 75.2 °F - 65.5 °F 72% 30.04 in 10.0 mi WSW 11.5 mph 17.3 mph N/A   Mostly Cloudy
9:14 AM 76.8 °F - 66.2 °F 70% 30.04 in 10.0 mi WSW 12.7 mph - N/A   Scattered Clouds
9:33 AM 76.3 °F - 66.2 °F 71% 30.04 in 10.0 mi West 8.1 mph - N/A   Clear
9:53 AM 77.2 °F - 66.7 °F 70% 30.03 in 10.0 mi West 10.4 mph 16.1 mph N/A   Scattered Clouds
10:14 AM 78.3 °F - 66.6 °F 67% 30.03 in 10.0 mi West 12.7 mph 17.3 mph N/A   Clear
10:33 AM 79.5 °F - 67.3 °F 66% 30.03 in 10.0 mi West 10.4 mph 21.9 mph N/A   Scattered Clouds
10:53 AM 79.7 °F - 67.3 °F 66% 30.03 in 10.0 mi West 11.5 mph 18.4 mph N/A   Scattered Clouds
11:14 AM 80.4 °F 83.0 °F 67.6 °F 65% 30.02 in 10.0 mi West 10.4 mph 17.3 mph N/A   Scattered Clouds
11:33 AM 81.3 °F 84.0 °F 67.5 °F 63% 30.02 in 10.0 mi WNW 10.4 mph 17.3 mph N/A   Scattered Clouds
11:53 AM 81.0 °F 83.6 °F 67.8 °F 64% 30.01 in 10.0 mi West 6.9 mph - N/A   Overcast
12:14 PM 81.9 °F 84.6 °F 67.8 °F 62% 30.00 in 10.0 mi West 8.1 mph - N/A   Mostly Cloudy
12:33 PM 82.6 °F 85.3 °F 67.3 °F 60% 30.00 in 10.0 mi West 11.5 mph 19.6 mph N/A   Scattered Clouds
12:54 PM 83.3 °F 85.9 °F 67.1 °F 58% 29.99 in 10.0 mi WSW 12.7 mph 19.6 mph N/A   Scattered Clouds
1:14 PM 84.0 °F 86.3 °F 66.2 °F 55% 29.99 in 10.0 mi WSW 9.2 mph 18.4 mph N/A   Scattered Clouds
1:33 PM 84.2 °F 86.6 °F 66.2 °F 55% 29.98 in 10.0 mi West 12.7 mph 18.4 mph N/A   Scattered Clouds
1:54 PM 84.2 °F 86.8 °F 66.7 °F 56% 29.98 in 10.0 mi WSW 8.1 mph 16.1 mph N/A   Scattered Clouds
2:13 PM 85.3 °F 87.6 °F 66.6 °F 53% 29.97 in 10.0 mi WSW 11.5 mph 18.4 mph N/A   Scattered Clouds
2:34 PM 85.3 °F 87.9 °F 66.9 °F 54% 29.97 in 10.0 mi WSW 10.4 mph - N/A   Mostly Cloudy
2:53 PM 85.6 °F 87.6 °F 65.7 °F 51% 29.96 in 10.0 mi West 12.7 mph - N/A   Mostly Cloudy
3:13 PM 86.9 °F 89.3 °F 66.0 °F 50% 29.95 in 10.0 mi West 6.9 mph - N/A   Mostly Cloudy
3:33 PM 87.4 °F 89.1 °F 64.9 °F 47% 29.93 in 10.0 mi West 9.2 mph - N/A   Scattered Clouds
3:53 PM 87.4 °F 89.8 °F 65.8 °F 49% 29.93 in 10.0 mi WSW 8.1 mph - N/A   Scattered Clouds
4:13 PM 84.6 °F 86.3 °F 65.3 °F 52% 29.92 in 1.0 mi WSW 5.8 mph - N/A   Haze
4:33 PM 83.3 °F 85.3 °F 65.5 °F 55% 29.93 in 10.0 mi WSW 5.8 mph - N/A   Mostly Cloudy
4:54 PM 66.4 °F - 63.5 °F 90% 29.97 in 0.8 mi Calm Calm - 0.47 in Rain Heavy Rain
5:13 PM 65.7 °F - 65.8 °F 100% 29.90 in 7.0 mi ENE 5.8 mph - 0.02 in Rain Light Rain
5:33 PM 65.7 °F - 65.8 °F 100% 29.92 in 10.0 mi Calm Calm - 0.02 in Rain Light Rain
5:53 PM 66.2 °F - 66.4 °F 100% 29.90 in 10.0 mi South 3.5 mph - 0.02 in   Clear
6:14 PM 66.7 °F - 66.9 °F 100% 29.90 in 10.0 mi ESE 3.5 mph - N/A   Clear
6:34 PM 67.1 °F - 67.3 °F 100% 29.92 in 10.0 mi Calm Calm - N/A   Clear
6:53 PM 68.4 °F - 68.7 °F 100% 29.92 in 10.0 mi Calm Calm - N/A   Clear
7:14 PM 69.1 °F - 69.3 °F 100% 29.92 in 10.0 mi Calm Calm - N/A   Mostly Cloudy
7:33 PM 69.3 °F - 69.4 °F 100% 29.91 in 7.0 mi ESE 3.5 mph - N/A   Scattered Clouds
7:53 PM 69.1 °F - 69.3 °F 100% 29.91 in 7.0 mi East 3.5 mph - N/A   Clear
8:14 PM 69.3 °F - 69.4 °F 100% 29.91 in 10.0 mi Calm Calm - N/A   Clear
8:33 PM 69.8 °F - 69.8 °F 100% 29.92 in 10.0 mi SE 4.6 mph - N/A   Clear
8:54 PM 68.9 °F - 69.1 °F 100% 29.91 in 7.0 mi Calm Calm - N/A   Scattered Clouds
9:14 PM 69.1 °F - 69.3 °F 100% 29.92 in 7.0 mi Calm Calm - N/A   Scattered Clouds
9:33 PM 69.6 °F - 69.1 °F 98% 29.96 in 1.5 mi NNW 18.4 mph 31.1 mph N/A Rain Light Rain
9:53 PM 64.6 °F - 64.0 °F 98% 29.96 in 4.0 mi West 6.9 mph - 0.15 in Rain Rain
10:14 PM 64.6 °F - 64.8 °F 100% 29.94 in 4.0 mi West 3.5 mph - 0.07 in Rain Light Rain
10:33 PM 64.8 °F - 64.9 °F 100% 29.97 in 3.0 mi South 3.5 mph - 0.08 in Rain Light Rain
10:53 PM 65.3 °F - 65.5 °F 100% 29.95 in 10.0 mi Calm Calm - 0.12 in Rain Light Rain
11:14 PM 65.5 °F - 65.7 °F 100% 29.95 in 7.0 mi WNW 5.8 mph - 0.03 in Rain Heavy Rain
11:33 PM 65.3 °F - 65.5 °F 100% 29.93 in 10.0 mi South 3.5 mph - 0.18 in   Overcast
11:54 PM 65.7 °F - 65.8 °F 100% 29.98 in 7.0 mi West 6.9 mph - 0.20 in Rain Rain